Wind_Speed
28 26 22 19 18 21 26 29 33 29 24 21 21 21 20 20 21 23 22 21 22 22 24 25 26 26 28 28 28 30 31 33 40 42 45 45 36 40 39 39 37 32 31
27 31 26 22 20 22 26 30 34 31 26 22 22 20 20 20 22 23 23 23 24 24 23 26 28 30 31 29 29 29 31 34 39 41 39 40 35 34 39 41 41 38 36
28 31 29 22 21 23 27 31 32 29 27 24 23 22 22 23 24 23 25 23 22 22 23 28 30 31 28 30 31 31 33 37 40 42 43 40 35 34 36 40 41 43 41
25 29 30 22 19 22 27 30 28 27 24 23 24 22 24 25 25 24 24 25 24 24 26 27 27 31 30 29 29 32 36 41 42 45 45 46 41 37 39 40 42 41 42
28 31 28 20 19 22 25 29 27 25 23 24 24 24 28 29 27 25 29 28 28 26 25 26 26 28 29 29 29 34 39 41 42 47 51 50 44 33 38 40 40 40 43
36 30 24 21 18 20 25 27 23 23 24 25 28 26 29 25 25 23 23 23 22 22 25 25 24 25 27 26 31 35 37 39 43 47 45 40 41 37 32 41 43 41 42
36 31 25 20 19 21 26 25 23 23 25 22 27 23 30 25 25 26 24 25 25 24 28 27 28 25 25 29 32 34 33 36 41 50 50 46 50 44 34 39 44 44 42
33 31 24 20 19 22 23 23 24 25 25 23 28 28 27 26 30 23 24 29 29 30 26 25 26 27 28 29 32 31 32 33 42 46 45 45 49 48 37 40 43 43 45
34 27 18 17 17 21 24 23 26 28 25 24 26 28 30 29 27 24 26 31 27 22 17 17 25 28 30 30 31 31 34 35 43 47 41 40 47 39 31 40 48 43 43
28 17 15 15 19 22 24 28 33 31 25 27 26 31 31 27 33 21 28 34 29 17 17 22 27 28 29 28 28 30 33 39 45 45 45 35 38 29 27 36 47 49 43
17 15 16 17 19 23 28 34 36 31 28 26 28 30 32 30 31 28 27 36 24 24 22 24 29 26 27 25 26 27 32 31 46 45 43 32 24 16 19 29 40 39 38
15 16 15 18 22 29 34 36 29 33 34 34 29 29 25 31 31 30 33 30 25 23 24 26 27 26 21 24 25 26 28 32 40 46 41 40 22 11 14 25 33 33 33
20 17 17 18 27 35 36 31 28 35 40 25 23 28 31 32 27 29 30 19 19 25 26 27 24 23 21 22 25 26 25 27 39 40 49 39 33 9 4 17 26 31 30
16 24 18 18 30 29 33 33 33 34 36 26 30 29 30 29 30 29 27 23 22 24 26 27 25 23 19 25 27 24 22 25 32 34 41 40 45 19 6 12 21 27 31
17 31 28 25 24 27 29 32 32 26 23 29 26 27 27 28 31 30 26 26 24 25 25 25 23 22 22 24 25 20 19 20 26 25 33 46 42 44 8 11 20 22 24
9 19 15 18 19 24 29 28 28 29 28 26 24 24 25 27 27 26 24 20 21 23 22 21 21 22 23 23 21 17 17 17 19 23 29 32 42 38 38 24 13 22 25
17 12 13 16 19 23 26 25 25 23 23 23 25 26 28 26 28 23 15 19 21 20 19 20 21 21 21 21 19 16 15 16 17 20 19 31 31 38 40 37 34 13 21
13 14 12 15 19 21 23 21 23 23 24 24 26 29 27 25 23 19 17 18 19 19 19 19 18 19 19 19 17 16 14 16 15 17 15 23 26 30 32 33 34 27 31
16 19 23 21 19 22 21 21 24 25 26 27 27 25 21 23 18 18 20 15 18 19 21 20 19 18 19 20 19 14 12 12 13 15 21 20 19 19 23 27 22 30 28
20 21 26 23 22 21 17 18 21 23 25 26 22 19 20 20 16 14 18 16 20 22 22 22 20 18 17 17 17 14 15 12 12 14 17 19 18 17 16 17 18 20 23
24 26 25 24 20 22 25 22 16 17 21 20 19 18 19 20 20 18 15 18 21 21 20 18 17 16 13 15 17 15 15 16 16 17 17 16 18 14 11 10 12 13 16
24 23 25 23 22 24 18 20 19 19 19 19 17 15 15 18 19 18 18 17 18 18 15 16 15 14 13 14 15 16 14 15 16 14 14 14 15 13 11 8 7 6 10
24 21 19 22 23 20 18 18 21 25 25 22 21 20 18 16 16 17 16 15 13 12 11 12 12 12 12 11 11 12 12 10 10 12 11 10 10 9 10 8 6 6 6
22 20 21 22 20 17 20 20 22 23 23 24 25 23 20 20 13 12 13 11 10 10 8 8 9 8 9 9 8 9 9 9 8 9 10 9 9 9 9 9 8 7 5
22 21 22 20 19 20 22 18 16 18 22 19 20 22 22 19 17 13 10 10 9 8 7 4 6 7 6 8 8 8 8 8 8 8 8 10 9 9 9 7 7 8 8
20 13 16 21 24 24 25 23 19 20 22 22 20 20 18 17 16 13 12 10 8 8 4 5 3 7 8 9 9 9 9 9 9 9 9 8 9 9 8 8 7 6 6
Wind_Direction
271 264 271 283 297 319 326 330 337 337 332 323 321 322 319 315 310 307 308 305 300 299 296 295 297 301 302 302 304 303 300 295 305 311 318 311 275 255 251 249 256 253 247
273 261 267 277 291 306 320 329 337 337 334 332 331 328 323 320 317 315 312 306 309 303 298 300 301 304 304 304 304 305 303 306 308 308 319 319 286 263 249 246 245 248 249
271 260 262 267 281 301 319 328 335 332 332 331 329 327 326 325 322 319 314 312 306 300 298 301 305 303 301 303 302 303 302 310 311 309 307 310 294 277 252 246 243 244 246
276 265 259 260 280 302 314 322 330 330 331 331 328 327 332 328 323 314 309 309 308 305 302 306 305 305 305 300 300 303 309 311 313 311 305 305 310 282 256 245 241 242 242
270 273 266 259 282 297 311 322 326 332 343 349 345 332 326 326 325 323 318 314 309 307 309 308 308 306 305 301 300 307 311 315 317 314 308 305 299 280 260 244 243 238 239
271 283 279 257 281 301 315 321 320 327 340 346 348 342 339 324 321 324 316 312 309 306 306 301 303 306 307 303 302 305 310 316 321 321 313 309 304 285 264 241 238 237 237
270 282 275 262 282 305 316 317 320 337 335 337 334 334 334 325 318 314 318 315 310 304 309 305 306 310 307 304 302 307 310 312 317 317 314 302 302 293 271 238 232 233 234
272 276 251 256 288 311 316 324 330 328 322 320 327 331 329 325 323 312 311 313 307 302 294 297 303 306 311 309 306 307 310 315 323 322 317 312 302 293 272 236 227 231 229
269 268 232 267 303 313 326 320 310 314 311 306 321 324 325 324 323 309 312 328 325 321 298 296 301 305 308 311 309 306 312 311 321 327 321 313 307 287 270 229 223 223 223
265 219 243 283 306 320 314 305 310 317 300 296 314 320 318 312 320 299 318 311 306 300 303 301 304 315 318 313 307 309 318 317 324 333 329 324 309 273 263 227 220 223 229
203 226 252 292 310 309 304 305 313 311 295 304 303 313 315 311 320 310 310 319 308 295 293 303 307 318 319 314 311 316 320 321 332 336 340 342 311 277 252 217 219 224 222
229 251 293 304 309 311 313 307 305 305 275 291 309 300 306 313 316 312 315 311 297 297 305 309 313 322 317 311 317 313 318 328 325 335 353 7 346 273 258 214 212 218 222
232 256 290 309 317 312 302 289 281 278 294 319 300 302 311 314 313 313 318 315 295 303 311 310 314 318 317 313 317 318 317 325 330 339 0 5 21 355 302 212 211 211 215
169 226 225 259 296 286 282 276 281 289 286 303 294 306 311 312 310 307 307 295 296 307 310 311 318 321 318 316 323 321 323 332 337 345 357 8 20 43 204 212 204 209 217
281 248 244 309 294 279 277 273 283 275 291 302 305 303 304 306 303 300 300 294 291 298 306 309 310 320 318 312 319 320 316 330 336 343 359 11 17 37 52 182 202 209 218
284 312 304 300 276 270 269 271 277 290 293 297 298 297 304 307 317 302 293 286 291 303 314 313 305 307 313 315 319 323 327 331 342 350 358 11 17 30 33 49 216 202 221
313 293 278 270 269 270 269 284 288 292 297 300 298 303 305 303 309 305 280 275 295 309 315 310 307 310 314 314 318 323 332 335 354 351 357 3 15 20 28 37 49 72 244
318 314 299 282 284 285 294 294 291 293 293 296 299 302 305 297 307 283 272 281 298 304 304 306 309 313 317 316 319 325 337 341 340 348 351 357 5 18 16 23 39 44 66
319 321 317 311 291 281 285 283 287 291 296 298 303 306 297 298 311 300 260 284 296 298 301 306 308 309 311 314 317 318 319 334 335 330 344 358 4 7 9 16 29 34 41
316 311 306 307 290 291 291 283 284 290 291 295 304 302 295 295 300 319 263 275 296 302 301 302 302 305 310 311 314 322 310 311 302 329 322 329 333 344 360 10 17 31 46
308 305 298 305 288 301 299 295 292 286 287 296 303 299 296 297 296 294 284 274 284 292 297 294 296 305 308 306 306 314 316 315 313 316 315 320 331 337 334 341 360 9 25
292 292 295 296 286 301 299 286 287 294 299 303 300 297 298 298 297 295 291 288 286 292 294 295 300 306 309 304 306 310 315 316 318 321 325 328 331 337 338 341 328 345 359
277 281 286 285 291 292 286 295 299 300 303 305 302 298 304 301 297 292 290 289 292 289 294 298 305 311 315 319 318 319 323 330 330 331 340 345 342 346 348 340 340 323 310
277 287 286 285 284 286 286 283 289 289 290 296 295 295 299 300 298 292 295 299 295 298 307 312 311 316 317 324 328 327 329 334 341 342 346 356 360 6 16 9 359 353 341
282 281 281 279 282 292 294 293 286 286 287 286 283 290 296 298 299 297 289 289 294 301 306 307 311 320 328 329 332 332 329 329 330 332 330 331 341 351 357 6 4 2 8
257 254 260 266 278 284 291 293 293 289 288 289 286 284 286 287 286 287 285 285 285 290 280 296 316 316 318 319 320 322 325 326 324 321 316 313 316 323 329 330 340 350 356
Height
3185 3186 3185 3185 3185 3184 3183 3180 3177 3173 3170 3167 3164 3162 3160 3158 3155 3152 3150 3148 3146 3144 3142 3139 3137 3136 3133 3130 3127 3123 3119 3114 3108 3107 3100 3093 3090 3093 3098 3101 3102 3106 3110
3178 3180 3179 3179 3178 3178 3177 3173 3169 3166 3163 3162 3159 3157 3154 3152 3149 3146 3144 3142 3140 3137 3136 3133 3131 3129 3126 3123 3119 3116 3111 3107 3101 3094 3092 3085 3081 3080 3084 3086 3089 3093 3096
3172 3172 3173 3173 3173 3172 3170 3167 3164 3162 3159 3157 3154 3152 3149 3146 3143 3141 3137 3136 3134 3132 3130 3127 3124 3120 3118 3114 3111 3107 3103 3099 3093 3086 3079 3077 3072 3072 3072 3074 3076 3081 3085
3164 3165 3166 3168 3169 3168 3166 3163 3160 3158 3155 3153 3150 3147 3145 3141 3138 3135 3133 3130 3127 3125 3123 3120 3117 3112 3109 3106 3103 3099 3095 3089 3084 3077 3069 3065 3063 3062 3062 3064 3065 3070 3076
3159 3159 3160 3162 3163 3162 3161 3157 3154 3152 3150 3147 3145 3143 3140 3137 3134 3130 3126 3122 3119 3117 3116 3113 3110 3106 3102 3099 3095 3091 3086 3080 3074 3067 3059 3052 3050 3048 3050 3054 3054 3059 3063
3153 3152 3153 3155 3156 3156 3155 3151 3149 3148 3146 3142 3139 3137 3133 3130 3127 3125 3121 3118 3115 3112 3109 3106 3103 3099 3096 3092 3089 3084 3079 3072 3066 3056 3048 3042 3037 3035 3036 3038 3043 3046 3050
3144 3145 3145 3147 3149 3149 3148 3145 3143 3142 3139 3137 3135 3131 3128 3125 3122 3119 3116 3112 3110 3107 3104 3101 3097 3093 3089 3086 3081 3077 3072 3067 3059 3050 3040 3033 3024 3023 3022 3025 3029 3034 3039
3136 3139 3140 3144 3146 3145 3142 3139 3137 3137 3134 3132 3130 3126 3121 3118 3116 3113 3110 3105 3102 3099 3097 3094 3091 3087 3083 3078 3074 3069 3065 3058 3052 3043 3030 3021 3012 3006 3005 3009 3017 3022 3029
3130 3134 3137 3140 3140 3139 3137 3135 3133 3131 3128 3123 3121 3118 3113 3110 3107 3106 3102 3100 3097 3092 3087 3087 3084 3080 3075 3071 3066 3061 3057 3051 3044 3033 3022 3010 2998 2989 2989 2993 3000 3009 3016
3129 3130 3133 3133 3133 3131 3129 3127 3126 3123 3122 3117 3114 3110 3106 3101 3100 3097 3095 3093 3091 3088 3086 3082 3077 3072 3068 3063 3059 3054 3049 3042 3033 3020 3009 2997 2983 2976 2976 2979 2992 2999 3008
3123 3126 3128 3127 3126 3126 3125 3121 3117 3114 3114 3112 3110 3109 3102 3095 3092 3092 3090 3087 3081 3080 3079 3075 3070 3064 3061 3057 3053 3049 3043 3034 3026 3013 2999 2986 2972 2968 2967 2972 2981 2991 3001
3120 3123 3122 3122 3119 3119 3115 3112 3110 3107 3103 3097 3098 3102 3095 3089 3087 3085 3083 3078 3076 3075 3071 3066 3061 3058 3056 3052 3049 3044 3039 3032 3023 3009 2995 2981 2966 2964 2964 2968 2975 2985 2995
3108 3112 3114 3114 3111 3110 3108 3106 3105 3101 3099 3091 3094 3092 3086 3081 3079 3078 3074 3072 3071 3068 3064 3058 3055 3053 3052 3048 3044 3040 3034 3028 3020 3008 2995 2981 2968 2962 2963 2966 2973 2981 2989
3084 3102 3098 3106 3107 3106 3101 3099 3097 3095 3094 3091 3088 3082 3076 3074 3073 3072 3070 3067 3065 3061 3057 3052 3050 3051 3048 3043 3039 3035 3030 3025 3017 3008 2997 2985 2971 2962 2962 2966 2970 2976 2983
3094 3094 3097 3093 3096 3095 3094 3092 3091 3089 3087 3083 3077 3075 3071 3068 3066 3065 3063 3060 3058 3055 3053 3050 3048 3046 3043 3040 3036 3032 3028 3024 3018 3010 3001 2989 2977 2966 2961 2964 2969 2974 2978
3090 3092 3091 3088 3086 3085 3085 3084 3083 3080 3077 3074 3071 3069 3066 3063 3059 3056 3055 3054 3051 3050 3048 3046 3044 3040 3038 3035 3033 3029 3025 3021 3016 3011 3003 2995 2983 2976 2969 2964 2965 2969 2974
3081 3080 3079 3078 3077 3076 3076 3076 3073 3070 3068 3067 3064 3060 3059 3057 3054 3050 3048 3046 3046 3045 3043 3041 3038 3036 3034 3031 3028 3026 3023 3019 3015 3011 3005 3000 2992 2984 2977 2972 2965 2964 2965
3074 3074 3073 3071 3069 3067 3066 3066 3065 3064 3062 3059 3057 3054 3052 3049 3048 3044 3042 3041 3041 3040 3038 3037 3034 3031 3030 3028 3025 3022 3021 3018 3015 3012 3007 3003 2998 2992 2984 2983 2979 2974 2973
3066 3065 3064 3063 3062 3061 3061 3060 3058 3055 3051 3050 3050 3048 3045 3043 3042 3038 3037 3037 3036 3035 3034 3031 3030 3028 3025 3024 3022 3020 3019 3017 3015 3012 3008 3005 3002 2998 2994 2987 2984 2982 2981
3058 3058 3058 3056 3055 3055 3056 3051 3050 3049 3045 3043 3045 3042 3039 3038 3036 3035 3033 3032 3032 3031 3029 3027 3025 3024 3022 3020 3018 3017 3015 3015 3013 3010 3008 3005 3002 2999 2997 2995 2993 2989 2984
3051 3051 3051 3051 3049 3049 3046 3044 3043 3042 3039 3039 3038 3035 3033 3031 3030 3030 3029 3029 3028 3026 3025 3023 3021 3020 3018 3016 3015 3014 3012 3011 3010 3008 3006 3003 3001 3000 2997 2996 2994 2992 2989
3048 3047 3044 3045 3044 3042 3039 3038 3038 3035 3032 3032 3032 3030 3029 3027 3025 3023 3023 3022 3021 3021 3020 3017 3016 3015 3014 3013 3012 3010 3009 3008 3006 3005 3004 3002 3000 2998 2996 2996 2994 2993 2992
3043 3041 3040 3039 3037 3036 3034 3032 3030 3027 3026 3024 3024 3023 3023 3022 3021 3018 3017 3017 3016 3015 3016 3014 3013 3012 3010 3009 3008 3008 3007 3006 3005 3004 3003 3001 3000 2998 2996 2994 2995 2994 2993
3035 3034 3032 3032 3031 3031 3029 3027 3024 3023 3022 3020 3016 3017 3018 3016 3016 3015 3013 3013 3012 3011 3012 3011 3010 3010 3009 3008 3007 3005 3005 3004 3004 3003 3001 3000 3000 2999 2998 2995 2993 2993 2992
3026 3027 3026 3025 3025 3024 3023 3022 3020 3018 3016 3016 3014 3013 3010 3011 3010 3010 3010 3009 3009 3009 3009 3010 3008 3008 3007 3006 3005 3004 3003 3003 3002 3002 3001 2999 2998 2998 2997 2996 2995 2994 2992
3021 3021 3021 3021 3020 3017 3016 3014 3014 3012 3009 3008 3008 3008 3008 3007 3006 3006 3006 3006 3006 3006 3006 3006 3007 3006 3005 3004 3003 3003 3002 3000 3000 2999 2999 2999 2998 2997 2996 2995 2995 2995 2994